Weather Roundup
Issued by NWS

Home | Current Version | Previous Version | Graphics & Text | Print | Product List | Glossary Off
Versions: 1 2 3 4 5 6 7 8 9 10 11 12 13 14 15 16 17 18 19 20 21 22 23 24 25 26 27 28 29 30 31 32 33 34 35 36 37 38 39 40 41 42 43 44 45 46 47 48 49 50

000
NZUS93 KARX 260010
HRRWXR

CURRENT HOURLY OBSERVATIONS ACROSS
MUCH OF THE UPPER MISSISSIPPI VALLEY
NATIONAL WEATHER SERVICE LA CROSSE WI
700 PM CDT SAT MAR 25 2017


...SOUTHEAST MINNESOTA...


CITY           SKY/WX    TMP DP  RH WIND       PRES   REMARKS
ROCHESTER      LGT RAIN  37  36  96 E15       30.00S FOG     WCI  28
ROCHESTER/MAYO CLOUDY    38  37  96 NE9       30.02R WCI  32
WINONA         DRIZZLE   37  36  93 E12       30.05S WCI  30
AUSTIN         LGT RAIN  37  36  93 E13G18    30.00R WCI  29
ALBERT LEA     MIX PCPN  37  37 100 E13       29.99S WCI  29
DODGE CENTER   LGT RAIN  37  36  93 NE14      30.01R WCI  29
PRESTON        CLOUDY    36  34  92 E10       30.00F WCI  28
OWATONNA       LGT RAIN  37  36  93 NE7       30.02S WCI  32
FARIBAULT      DRIZZLE   37  37 100 NE8G16    30.04R WCI  31
$$

...ELSEWHERE IN MINNESOTA...


CITY           SKY/WX    TMP DP  RH WIND       PRES   REMARKS
MINNEAPOLIS    CLOUDY    42  33  70 E13       30.06S
INTNL FALLS    CLOUDY    39  25  57 SE7       30.10F WCI  34
DULUTH         CLOUDY    31  29  92 E17       30.14F WCI  19
RED WING       DRIZZLE   39  36  87 E6        30.05S WCI  35
REDWOOD FALLS  CLOUDY    42  34  73 E9        30.03S
MANKATO        LGT RAIN  38  37  97 NE10      30.04R FOG     WCI  31
WORTHINGTON    CLOUDY    37  36  96 NE12      30.00R FOG     WCI  29
FAIRMONT       CLOUDY    38  36  92 NE10      30.01S WCI  31
$$

...SOUTHWEST WISCONSIN...


CITY           SKY/WX    TMP DP  RH WIND       PRES   REMARKS
LA CROSSE      LGT RAIN  39  36  89 E7        30.04F FOG     WCI  34
PRAIRIE DU CHI CLOUDY    39  38  97 E9        29.99S FOG     WCI  33
BOSCOBEL       CLOUDY    41  37  86 E10G22    30.01S
LONE ROCK      CLOUDY    39  37  92 E14       30.03S FOG     WCI  31
PLATTEVILLE    CLOUDY    40  40 100 E16G23    29.98R WCI  31
FORT MC COY    CLOUDY    36  35  96 E14G23    30.06F FOG     WCI  27
CAMP DOUGLAS   CLOUDY    36  35  97 E9        30.07S FOG     WCI  29
MAUSTON-NEW LI CLOUDY    37  36  96 E7        30.06S FOG     WCI  31
VIROQUA        CLOUDY    36  36 100 E17G23    30.01R WCI  26
WIS DELLS      DRIZZLE   36  35  96 E12G21    30.05R WCI  28
$$

...ELSEWHERE IN WISCONSIN...


CITY           SKY/WX    TMP DP  RH WIND       PRES   REMARKS
MILWAUKEE      LGT RAIN  39  36  89 NE13      30.07R WCI  31
MADISON        DRIZZLE   39  37  92 E15       30.03S WCI  31
GREEN BAY      LGT RAIN  35  35 100 NE16      30.15S FOG     WCI  25
EAU CLAIRE     LGT RAIN  38  36  92 NE9       30.08S WCI  31
BLACK RVR FLS  DRIZZLE   37  37 100 E10       30.06F WCI  30
MEDFORD        DRIZZLE   36  31  83 E13G18    30.09R WCI  27
WAUSAU         LGT RAIN  33  31  92 E10       30.11R FOG     WCI  25
WIS RAPIDS     CLOUDY    34  34 100 E15G22    30.11S WCI  24
MARSHFIELD     LGT RAIN  34  32  92 E15       30.08S FOG     WCI  24
RICE LAKE      CLOUDY    41  32  71 CALM      30.10F
$$

...NORTHEAST IOWA...


CITY           SKY/WX    TMP DP  RH WIND       PRES   REMARKS
WATERLOO       CLOUDY    40  38  93 NE13      29.94S WCI  32
DUBUQUE        FOG       40  40 100 NE15      29.94S VSB 1/4 WCI  32
DECORAH        CLOUDY    37  37 100 E17       29.98R WCI  28
MASON CITY     CLOUDY    38  36  92 NE14      29.98S FOG     WCI  30
CHARLES CITY   CLOUDY    39  39 100 NE12G18   29.97S FOG     WCI  32
OELWEIN        CLOUDY    39  39 100 E17G24    29.93S FOG     WCI  30
$$

...ELSEWHERE IN IOWA...


CITY           SKY/WX    TMP DP  RH WIND       PRES   REMARKS
DES MOINES     CLOUDY    44  41  89 NE12      29.89S
IOWA CITY      CLOUDY    48  45  89 NE14      29.89F
FORT DODGE     CLOUDY    39  36  87 NE13      29.95S WCI  32
MARSHALLTOWN   CLOUDY    41  41 100 NE12      29.91R
CEDAR RAPIDS   FOG       44  44 100 E17       29.89S VSB 1/2
$$

...NORTHERN ILLINOIS...


CITY           SKY/WX    TMP DP  RH WIND       PRES   REMARKS
CHICAGO-OHARE  LGT RAIN  43  41  93 NE9       29.98S FOG
CHICAGO-MIDWAY CLOUDY    46  44  93 N10       29.98S FOG
MOLINE         CLOUDY    51  48  89 NE14      29.88S FOG
ROCKFORD       LGT RAIN  43  40  89 E14       29.99S
PEORIA         LGT RAIN  59  59 100 E6        29.88S FOG
$$

NOTE: "FAIR" INDICATES FEW OR NO CLOUDS BELOW 12,000 FEET WITH NO
SIGNIFICANT WEATHER AND/OR OBSTRUCTIONS TO VISIBILITY. WIND
SPEEDS ARE IN MILES-PER-HOUR.




USA.gov is the U.S. government's official web portal to all federal, state and local government web resources and services.